Wind_Speed
36 33 26 24 26 26 27 25 22 19 17 12 10 12 15 8 7 10 7 5 8 4 13 12 9 6 7 10 10 11 12 13 11 8 4 3 2 2 3 2 6 12 12 11
33 31 21 22 23 25 28 24 24 21 18 17 14 13 15 12 9 11 12 12 8 11 12 11 5 5 5 7 9 10 11 9 7 11 15 7 3 4 1 1 7 8 10 9
31 29 22 24 25 22 23 21 24 24 23 20 18 15 15 14 11 13 17 15 16 15 14 9 10 8 6 6 12 12 15 13 10 6 11 15 17 7 5 8 9 5 8 15
29 28 21 25 26 22 21 22 23 23 24 20 20 18 20 19 17 13 19 23 20 19 18 15 11 12 6 7 14 15 17 18 14 11 7 8 13 16 18 11 20 20 19 19
30 26 22 24 23 21 21 23 21 23 25 20 17 19 21 25 19 21 19 20 19 16 19 14 17 15 17 13 18 15 15 19 19 17 13 13 10 12 19 14 13 13 22 30
27 24 20 22 20 19 18 19 20 21 22 19 14 15 21 27 25 24 25 17 13 18 24 18 20 23 20 14 21 19 13 19 24 20 16 22 17 20 20 13 13 12 15 17
29 26 23 24 22 18 17 17 20 21 18 14 13 17 21 27 26 27 27 22 18 19 26 25 23 27 23 14 19 19 17 16 19 28 25 20 16 18 19 28 23 11 15 19
31 28 26 28 25 20 18 18 20 19 18 15 16 21 22 26 27 31 33 22 26 21 27 31 28 29 28 25 25 21 22 24 18 29 25 19 16 21 27 31 30 31 28 25
36 35 29 28 28 22 24 21 21 19 19 17 17 20 24 24 26 36 31 26 28 27 27 32 30 32 34 31 27 24 18 24 22 28 27 28 28 31 31 28 34 37 45 49
42 40 35 30 30 25 25 26 22 21 21 18 18 20 23 26 32 37 27 27 29 30 30 32 36 33 35 36 31 31 35 29 22 30 27 28 31 41 40 42 48 50 52 54
47 46 43 35 33 30 28 27 26 24 21 20 19 24 24 27 32 32 28 27 30 30 31 33 36 35 34 41 38 40 42 42 34 39 35 35 40 40 44 51 48 52 56 61
52 50 48 41 37 35 32 29 29 27 24 20 19 27 28 26 31 30 30 27 26 27 29 30 33 38 38 43 45 44 47 46 47 49 51 50 51 54 58 60 66 68 73 76
56 52 54 47 40 39 37 35 33 27 26 25 22 29 30 30 31 30 30 29 28 25 26 30 33 35 37 43 47 49 48 50 51 51 55 58 62 65 67 71 72 76 76 81
61 57 56 54 47 45 42 40 35 30 28 29 26 31 32 35 33 30 27 29 28 25 25 27 30 36 36 38 43 45 47 49 50 53 58 59 62 65 68 69 75 77 82 87
65 61 60 60 55 49 47 43 36 32 30 30 32 32 34 39 35 29 30 31 31 29 30 30 30 30 34 39 42 45 49 53 55 58 61 64 67 71 77 78 80 81 84 87
69 65 65 64 62 56 51 43 39 38 36 34 35 37 38 40 37 30 32 33 32 32 33 33 31 31 36 39 41 47 51 55 61 61 64 66 70 72 77 81 82 80 79 82
71 68 67 65 65 60 47 47 48 44 41 38 38 41 41 41 37 33 32 33 33 34 34 34 33 36 39 43 45 48 50 54 57 62 66 69 73 76 74 75 74 76 79 76
75 72 71 68 68 61 53 52 49 47 43 41 41 43 43 43 40 35 32 33 33 34 34 33 35 34 36 36 40 43 45 48 52 57 61 64 63 64 63 64 67 69 63 58
75 72 70 69 66 60 57 56 57 54 47 44 47 45 45 45 41 34 35 33 35 36 37 40 37 35 35 34 36 37 36 43 50 56 58 58 57 57 57 56 55 53 52 51
74 74 75 71 68 60 59 58 56 55 48 48 47 47 48 44 39 36 36 37 36 37 35 35 35 33 32 29 32 32 35 42 46 49 52 53 53 53 54 53 51 49 48 50
66 66 63 60 55 53 52 51 53 53 50 54 51 47 47 42 38 36 37 39 37 38 38 36 33 32 33 31 31 36 39 44 54 51 49 51 50 51 53 52 49 47 48 51
58 58 54 52 49 48 48 52 53 53 56 53 45 46 45 41 38 38 37 37 37 36 36 36 35 35 36 39 39 44 46 48 58 63 57 52 51 50 50 50 49 48 50 52
49 47 50 47 40 45 47 49 47 52 50 45 46 46 44 40 39 38 37 37 36 37 37 36 37 38 36 36 41 43 53 58 66 63 53 52 53 52 50 49 48 49 52 52
41 39 43 44 43 43 45 46 44 46 44 40 45 45 44 41 41 36 36 35 36 37 37 37 39 39 38 41 43 46 56 60 59 54 52 54 56 52 50 50 50 52 51 53
39 37 38 41 41 42 44 44 47 42 35 42 42 45 39 38 39 35 35 35 34 34 36 37 38 39 41 42 45 44 54 60 65 60 57 57 57 53 52 50 50 50 52 56
40 40 40 41 42 41 45 44 46 41 37 39 38 40 39 37 32 32 30 32 33 37 37 37 40 42 44 44 43 47 57 59 69 70 62 59 56 54 52 49 48 50 54 55
Wind_Direction
282 281 284 277 279 281 285 291 291 287 290 299 276 268 268 264 280 283 241 213 226 214 144 131 143 118 70 27 24 18 7 359 15 6 26 86 133 102 89 149 239 299 336 312
273 274 277 268 269 274 283 289 287 288 290 295 294 262 259 258 244 259 247 225 200 197 168 174 236 226 256 331 347 332 331 343 356 10 356 340 309 316 45 178 297 320 315 242
269 274 265 260 263 266 273 275 275 280 284 289 289 290 282 262 250 231 232 239 225 220 250 248 252 302 289 267 321 319 317 306 320 10 351 350 334 296 298 221 235 235 239 274
264 268 267 263 265 261 259 262 265 269 271 273 284 288 288 281 274 245 231 243 248 247 259 243 249 255 267 285 319 296 296 288 288 290 326 331 321 315 302 264 223 239 235 242
255 260 253 258 268 271 275 272 273 271 273 277 284 287 280 280 277 269 248 237 251 229 197 211 259 271 275 283 294 309 287 271 275 258 308 315 309 313 310 291 277 281 260 258
250 257 262 269 272 272 275 273 272 271 274 274 276 280 272 271 272 274 271 263 244 233 228 247 263 273 285 303 284 283 279 282 269 257 277 275 276 278 270 258 290 307 310 327
247 249 253 264 270 283 293 284 271 266 267 276 261 263 264 268 270 275 276 277 271 240 233 239 252 266 279 277 265 265 265 245 262 257 257 255 257 270 269 260 253 262 285 294
246 251 252 264 271 279 285 283 279 283 276 272 260 261 266 271 274 273 272 281 277 266 241 238 235 250 257 264 267 265 256 246 249 257 239 264 238 252 263 273 261 270 285 276
244 249 250 262 268 274 276 278 281 281 280 267 263 263 263 266 269 266 269 271 271 269 262 257 251 245 252 254 259 239 236 248 236 248 246 279 261 255 260 270 276 278 288 292
250 252 253 259 269 272 270 270 273 277 278 276 263 264 263 262 262 265 271 269 267 267 265 264 258 253 254 258 256 241 258 265 251 256 263 263 256 262 269 269 277 278 279 277
250 254 256 256 265 269 272 270 269 271 272 269 264 266 263 265 268 273 272 268 267 264 263 266 266 260 253 256 257 255 259 264 264 259 266 262 262 267 265 271 272 283 279 281
251 256 261 259 263 271 273 269 261 261 266 273 268 264 265 269 270 272 272 269 267 268 263 264 263 264 259 255 260 261 266 271 278 277 277 281 281 277 275 279 281 283 286 289
250 255 258 260 262 267 267 262 263 262 259 265 265 262 265 269 270 275 280 278 274 271 266 254 261 263 257 260 262 266 271 277 282 284 283 286 287 287 285 284 283 285 287 290
248 251 256 259 256 261 265 263 265 262 262 258 264 266 260 264 268 274 284 281 279 278 276 271 270 268 269 268 268 272 276 278 282 285 285 287 285 286 292 292 295 292 292 294
248 251 254 257 259 259 261 261 259 261 260 258 258 263 261 259 265 272 279 282 283 285 285 286 284 277 275 275 275 275 275 277 275 274 274 276 278 282 288 290 295 299 300 302
247 248 251 255 258 259 259 256 258 262 259 256 254 259 260 261 262 267 274 281 284 285 288 286 285 285 284 283 283 284 285 284 284 287 289 291 291 291 291 294 297 299 300 298
245 246 249 251 255 256 255 261 261 257 253 249 252 255 257 259 262 261 270 278 284 289 289 292 291 287 290 291 290 289 286 287 289 289 289 291 293 292 291 292 292 294 296 297
245 246 248 250 253 257 257 257 256 254 251 248 250 252 254 257 260 260 264 272 277 281 280 290 291 291 290 288 287 289 292 292 296 295 293 292 292 293 294 296 297 296 295 294
244 247 249 250 252 254 256 257 255 252 246 247 248 250 252 254 258 263 263 265 271 273 275 279 286 286 290 297 300 301 304 303 298 297 300 304 302 300 301 299 295 295 295 297
243 245 246 249 253 253 251 251 250 247 240 242 246 247 250 254 257 259 261 264 267 274 275 281 284 290 295 299 303 308 308 314 312 315 312 307 303 302 304 301 298 297 300 302
242 244 246 247 248 245 244 245 244 240 236 236 238 241 247 251 255 258 262 265 269 273 275 279 288 291 294 293 298 300 311 320 326 322 318 313 307 306 305 304 302 302 303 304
238 241 242 241 238 240 240 240 238 235 235 239 239 239 242 244 248 253 257 263 269 275 280 282 290 292 287 286 291 301 313 316 320 322 320 316 311 309 308 307 306 306 306 305
234 236 235 231 227 229 231 230 231 232 235 236 237 238 240 243 249 252 257 266 275 278 279 284 286 286 291 293 296 306 317 316 317 315 313 318 317 314 311 309 309 309 308 309
227 228 231 225 222 222 226 224 223 229 232 234 236 237 238 240 245 253 259 268 272 277 282 287 289 291 293 296 305 319 332 334 321 315 320 319 318 316 313 312 312 311 310 311
225 216 218 218 215 216 219 217 218 224 224 231 236 237 234 239 244 251 258 267 271 279 282 286 291 296 298 302 307 313 332 335 339 330 323 319 318 319 317 314 312 311 314 315
222 215 208 210 210 213 219 215 221 218 219 228 221 234 234 241 251 257 263 271 276 277 284 289 296 297 301 304 309 317 326 326 331 332 322 318 317 318 315 312 313 314 316 316
Height
10968 10969 10972 10970 10966 10963 10962 10963 10964 10965 10965 10966 10967 10966 10964 10965 10965 10965 10966 10967 10967 10968 10965 10963 10963 10962 10959 10962 10963 10961 10961 10959 10957 10956 10955 10955 10955 10955 10953 10952 10954 10952 10952 10949
10961 10962 10967 10965 10963 10960 10957 10960 10960 10960 10960 10961 10962 10962 10961 10961 10963 10963 10963 10963 10965 10966 10965 10964 10964 10963 10962 10960 10960 10960 10958 10957 10956 10954 10953 10953 10954 10954 10953 10952 10952 10949 10950 10949
10954 10956 10960 10958 10958 10958 10957 10957 10955 10955 10955 10957 10957 10957 10956 10956 10958 10959 10958 10958 10960 10962 10962 10961 10958 10959 10959 10959 10958 10956 10955 10954 10955 10952 10949 10949 10951 10950 10951 10951 10952 10951 10951 10949
10948 10950 10954 10952 10952 10954 10954 10953 10953 10953 10953 10954 10953 10953 10952 10951 10952 10954 10954 10952 10956 10960 10958 10956 10957 10956 10955 10955 10954 10953 10952 10951 10950 10948 10945 10942 10944 10946 10945 10950 10949 10950 10949 10948
10941 10945 10947 10945 10946 10948 10950 10949 10950 10950 10949 10951 10952 10950 10948 10944 10946 10947 10948 10948 10953 10955 10955 10953 10951 10951 10950 10950 10950 10949 10947 10945 10945 10945 10945 10943 10940 10941 10943 10942 10943 10944 10945 10944
10936 10937 10939 10939 10942 10942 10944 10945 10945 10946 10946 10948 10948 10946 10943 10939 10940 10941 10940 10946 10949 10950 10948 10949 10948 10947 10946 10946 10945 10944 10943 10942 10942 10941 10939 10937 10937 10937 10938 10938 10938 10938 10936 10935
10929 10932 10933 10934 10936 10938 10939 10941 10940 10941 10942 10943 10944 10941 10938 10934 10935 10934 10933 10940 10941 10941 10941 10941 10943 10941 10944 10942 10942 10942 10938 10936 10937 10936 10933 10930 10930 10932 10932 10935 10934 10932 10932 10932
10921 10923 10926 10926 10930 10934 10933 10935 10935 10935 10937 10938 10938 10935 10933 10931 10930 10927 10925 10935 10932 10934 10934 10935 10937 10936 10939 10938 10938 10936 10934 10933 10932 10931 10930 10928 10927 10927 10929 10928 10925 10921 10922 10924
10911 10913 10919 10921 10923 10928 10927 10930 10930 10932 10932 10934 10933 10930 10928 10928 10925 10918 10924 10929 10927 10927 10928 10928 10929 10929 10929 10933 10932 10929 10928 10930 10928 10928 10926 10927 10925 10923 10920 10918 10915 10913 10911 10911
10902 10905 10911 10915 10916 10921 10922 10923 10926 10927 10928 10929 10928 10924 10923 10922 10918 10914 10921 10923 10921 10921 10922 10922 10923 10925 10925 10925 10928 10925 10923 10925 10921 10921 10919 10917 10917 10912 10911 10910 10905 10902 10899 10898
10891 10894 10898 10906 10908 10912 10915 10917 10919 10921 10922 10923 10923 10919 10917 10915 10913 10912 10914 10916 10914 10915 10916 10915 10915 10918 10920 10919 10921 10920 10918 10917 10915 10914 10912 10909 10905 10902 10897 10891 10887 10886 10885 10882
10881 10884 10888 10896 10901 10903 10906 10909 10910 10913 10916 10917 10916 10912 10910 10910 10907 10907 10908 10909 10910 10912 10912 10910 10910 10911 10912 10913 10913 10913 10913 10912 10911 10908 10906 10903 10900 10895 10891 10887 10882 10879 10876 10873
10868 10877 10875 10885 10893 10894 10896 10898 10901 10906 10908 10909 10909 10904 10904 10903 10901 10901 10901 10903 10905 10906 10907 10906 10906 10905 10906 10905 10904 10904 10905 10902 10901 10899 10896 10892 10889 10885 10880 10875 10873 10868 10862 10858
10857 10863 10865 10869 10878 10882 10885 10888 10893 10898 10900 10900 10902 10898 10898 10895 10894 10895 10896 10897 10897 10898 10898 10899 10900 10899 10898 10898 10898 10897 10895 10894 10892 10888 10885 10880 10875 10871 10866 10862 10856 10851 10845 10839
10846 10853 10855 10855 10863 10871 10874 10878 10884 10888 10891 10893 10891 10891 10890 10886 10889 10890 10889 10889 10890 10890 10891 10891 10892 10890 10889 10888 10887 10887 10885 10882 10880 10876 10872 10868 10864 10859 10852 10846 10840 10834 10825 10818
10832 10840 10842 10844 10847 10856 10862 10870 10874 10878 10881 10883 10882 10882 10881 10880 10882 10886 10885 10885 10885 10884 10884 10884 10884 10882 10882 10880 10877 10874 10872 10867 10862 10858 10854 10850 10845 10839 10833 10826 10820 10815 10808 10802
10815 10824 10827 10832 10833 10840 10856 10860 10862 10864 10868 10871 10872 10872 10872 10872 10875 10879 10880 10879 10879 10878 10878 10876 10875 10874 10872 10869 10867 10863 10859 10853 10849 10845 10840 10836 10830 10824 10818 10813 10807 10800 10792 10783
10799 10808 10813 10818 10821 10833 10845 10845 10848 10852 10857 10860 10862 10862 10863 10865 10867 10871 10873 10873 10872 10871 10870 10870 10868 10866 10863 10859 10856 10853 10849 10845 10839 10833 10828 10822 10816 10809 10801 10793 10786 10779 10771 10766
10785 10793 10799 10803 10811 10824 10831 10833 10833 10837 10845 10849 10849 10852 10854 10856 10859 10863 10864 10865 10865 10865 10865 10864 10861 10859 10856 10852 10849 10845 10839 10834 10827 10820 10812 10804 10797 10790 10783 10776 10770 10763 10758 10752
10769 10776 10781 10792 10799 10812 10813 10814 10818 10824 10834 10836 10837 10841 10844 10848 10852 10854 10855 10855 10856 10858 10858 10856 10853 10850 10846 10843 10840 10836 10831 10824 10816 10809 10800 10793 10786 10778 10771 10764 10756 10750 10743 10736
10751 10759 10769 10778 10788 10794 10797 10800 10804 10811 10817 10818 10823 10830 10835 10840 10843 10845 10845 10846 10848 10847 10846 10846 10844 10841 10838 10835 10831 10827 10820 10812 10805 10798 10789 10780 10772 10764 10757 10750 10742 10734 10728 10722
10736 10747 10759 10765 10773 10779 10782 10784 10791 10796 10800 10808 10820 10823 10825 10828 10831 10833 10836 10836 10837 10838 10836 10835 10833 10832 10829 10826 10822 10814 10807 10801 10794 10786 10777 10769 10759 10750 10743 10735 10727 10720 10713 10706
10726 10738 10745 10753 10760 10761 10766 10771 10780 10784 10791 10801 10809 10814 10817 10820 10822 10824 10826 10829 10829 10828 10827 10826 10825 10822 10819 10814 10808 10803 10799 10791 10781 10772 10765 10755 10745 10736 10728 10720 10713 10705 10698 10691
10716 10726 10736 10740 10747 10751 10756 10762 10770 10774 10784 10794 10799 10804 10808 10811 10813 10817 10818 10819 10820 10819 10819 10817 10815 10812 10807 10802 10799 10796 10788 10778 10769 10760 10748 10738 10730 10722 10713 10704 10697 10691 10685 10677
10709 10716 10726 10733 10738 10743 10747 10752 10757 10765 10778 10783 10791 10795 10798 10800 10805 10809 10808 10810 10810 10809 10808 10807 10803 10801 10796 10794 10791 10786 10776 10767 10756 10745 10734 10725 10717 10707 10698 10691 10686 10678 10670 10663
10700 10708 10716 10725 10731 10736 10739 10746 10752 10759 10768 10774 10784 10784 10787 10792 10799 10800 10800 10800 10800 10799 10798 10795 10793 10790 10788 10785 10780 10772 10764 10754 10742 10732 10723 10714 10705 10696 10689 10681 10674 10667 10659 10650